Погода в Хабаровске

Погода в Хабаровске : погода сейчас, прогноз погоды и архив. Всё, что Вы хотите узнать о погоде в Хабаровске!

Хотите узнать прогноз погоды в Хабаровске? Тогда Вам сюда: Погода в Хабаровске

Поиск расширенной информации на нашем сайте:

Другие новости

Новости СМИ2

Главная страница сайта

Новости сайта

03.07.2017

Напоминаем, что на нашем специализированном сайте Метеоцентр.Азия вы можете получить высокодетализированные автоматические прогнозы погоды по пунктам России, СНГ и мира в авиационном формате (включающие направление и скорость ветра, видимость, явления погоды, количество и форму облачности, нижнюю и верхнюю границу облачности).


Погода в Хабаровске - сегодня

Время (UTC), дата Ветер
(°,м/с) 
Видим.   Явления Облачность Т
(°С)
Тd
(°С)
f(%) Тe
(°С)
Pmin
(гПа)
dP
(гПа)
Po
(мм)
O2
(г/м3)
Тmin Tmax R s Состояние
почвы
03 16.04.18 240 (ЮЗ) 10 км    4/0 верхняя 
[Ci fib]
+11.1 -2.4 39 +10  1008.5  -0.4  750  291           
06 16.04.18 230 (ЮЗ) 8{13}  10 км    9/3 1000 м верхняя 
[Cu med, cong|Ci fib]
+13.6 -4.6 28 +12  1007.5  -0.9  749  288           
09 16.04.18 230 (ЮЗ) 8-11{13}  10 км    9/0 средняя, верхняя 
[Ac trans|Ci fib]
+11.9 -4.1 32 +10  1007.6  749  290    +14.4       
18 16.04.18 230 (ЮЗ) 3{15}  10 км    6/0 средняя, верхняя 
[Ac trans|Ci fib]
+4.5 -5.3 49 +3  1010.9  0.6  752  299           
00 17.04.18 160 (Ю) 10 км    5/0 верхняя 
[Ci fib]
+11.6 -4 33 +11  1009.5  -0.9  751  291           
03 17.04.18 210 (ЮЗ) 10 км    9/0 средняя, верхняя 
[Ac trans|Ci fib]
+16 -4.3 24 +16  1007.9  -1.4  750  286           
12 17.04.18 200 (Ю) 10 км    8/0 средняя 
[Ac trans]
+11.1 +3.8 61 +11  1007  749  289           
15 17.04.18 190 (Ю) 10 км    8/0 средняя 
[Ac trans]
+10.7 +2.7 58 +11  1006.9  -0.1  749  290           
18 17.04.18 150 (ЮВ) 10 км    8/0 средняя 
[Ac trans]
+8.4 +0.9 59 +9  1006.1  -0.9  748  292           
03 18.04.18 190 (Ю) 10 км  {ливн. осадки}  10/3 600 м кучево-дожд., средняя 
[Cb cap|Ac As]
+14.9 +2.5 43 +15  1006.6  -1.2  749  286           
06 18.04.18 210 (ЮЗ) 10 км  {ливн. осадки}  6/0 средняя, верхняя 
[Ac trans|Ci fib]
+16.9 +2.7 39 +17  1005.4  -1.2  748  283           
12 18.04.18 150 (ЮВ) 10 км    4/0 средняя 
[Ac trans]
+11.3 +4.8 64 +11  1005.9  0.7  748  289           
15 18.04.18 250 (З) 10 км    6/0 средняя, верхняя 
[Ac trans|Ci fib]
+9.4 +2.8 63 +9  1006.2  0.4  748  291           
18 18.04.18 020 (С) 5000 м  мгла  ясно 
+3.8 +3.5 98 +2  1007.4  749  297           
21 18.04.18 020 (С) 0100 м  туман  10/10 30 м 
[St]
+3.1 +3.1 100 +1  1008.8  1.3  750  298  +2.8         
00 19.04.18 010 (С) 0900 м  туман  ?/?  
+4.9 +4.9 100 +5  1009.5  0.9  751  296           
03 19.04.18 360 (С) 10 км    9/0 средняя, верхняя 
[Ac trans|Ci fib]
+14.2 +6.1 58 +15  1008.6  -0.6  750  286           
06 19.04.18 230 (ЮЗ) 10 км    9/0 средняя, верхняя 
[Ac trans|Ci fib]
+17.6 +1.3 33 +19  1007.1  -1.4  749  283           
12 19.04.18 240 (ЮЗ) 10 км    9/0 средняя, верхняя 
[Ac trans|Ci fib]
+11.3 +2.7 55 +11  1009.5  2.1  751  290           
15 19.04.18 240 (ЮЗ) 10 км    6/0 верхняя 
[Ci fib]
+10.5 +4.3 65 +9  1010  0.5  751  291           
18 19.04.18 240 (ЮЗ) 8{10}  10 км    6/0 верхняя 
[Ci fib]
+11.6 +3.4 57 +10  1010.4  0.2  751  290           
00 20.04.18 230 (ЮЗ) 6{11}  10 км    9/0 средняя, верхняя 
[Ac trans|Ci fib]
+13 +4.5 56 +12  1009.8  -0.2  751  288           
03 20.04.18 240 (ЮЗ) 9{15}  10 км    9/3 1000 м средняя 
[Sc|Ac trans]
+18.2 +5.3 43 +18  1009.9  0.2  751  283           
12 20.04.18 210 (ЮЗ) 4{16}  10 км    10/3 1000 м кучево-дожд., средняя 
[Cb cap|Ac As]
+15.8 +5.2 49 +16  1005.2  -0.1  748  284           
21 20.04.18 270 (З) 5000 м  слаб. ливневой дождь  10/8 800 м кучево-дожд., средняя 
[Cb cap|Ac As]
+10.1 +9.7 97 +10  1001.4  -0.5  745  288  +10.1    0.8     
Время (UTC), дата Ветер
(°,м/с) 
Видим.   Явления Облачность Т
(°С)
Тd
(°С)
f(%) Тe
(°С)
Pmin
(гПа)
dP
(гПа)
Po
(мм)
O2
(г/м3)
Тmin Tmax R s Состояние
почвы

Для получения пояснительной информации подведите курсор к названию столбца.

ПОГОДА в Хабаровске - архив

Всё, что Вы хотите узнать о погоде в Хабаровске - удобно и подробно!

Выберите нужную дату (начиная с 1 января 2015* года) и нажмите кнопку "Найти".
Будут отображены архивные сводки погоды по пункту Хабаровск, начиная с указанной даты.


Отображать данные в формате CSV (для использования в таблицах Excel)


Внимание! Наш архив погоды предназначен исключительно для личного некоммерческого использования в познавательных целях. Если Вам необходимы официальные справки о состоянии погоды (для производственных, юридических, коммерческих и т.п. целей), обращайтесь в органы Росгидромета.

*Примечание: данная дата относится к архиву по метеостанциям СССР (Россия, СНГ, Балтия).
Архив по метеостанциям Зарубежной Европы и Азии (кроме Китая) хранится 10 дней, по другим регионам земного шара (Китай, Африка, Америка, Австралия, Океания) - 1 день.

Хабаровск - район местоположения метеостанции


Название, широта, долгота, высота метеостанции:
Хабаровск 48.5°ш. 135.2°д. 76 м над ур. моря [Российская Федерация]

Дополнительная информация

В oтличие oт бoльшинства пoгoдных сайтoв мы публикуем пoдрoбную метеoинфoрмацию в детальнoм прoфессиoнальнoм фoрмате.

Характеристики температуры и влажнoсти вoздуха измеряются на высoте 2 м в тени вдали oт зданий и деревьев.
Скoрoсть ветра измеряется на высoте 10 м (на урoвне рoста челoвека скoрoсть ветра ниже в 1.5-2 раза). Если метеoстанция нахoдится в гoрoде или в лесу, тo скoрoсть ветра занижена на 2-4 м/с пo сравнению с oткрытым местoм. Скoрoсть ветра над акватoриями крупных рек и oзёр, а также на вершинах хoлмoв на 2-5 м/с выше, чем в oбычных услoвиях.
Атмoсфернoе давление в разных тoчках местнoсти мoжет значительнo oтличаться oт давления на метеoстанции, в зависимoсти oт услoвий рельефа (при пoдъёме на 10 м давление пoнижается примернo на 1 мм рт.ст.).